RH
91 97 94 87 76 85 90 91 56 91 96 37 20 24 28 58 54 60 69 85 94 91 81 79 82 77 73 72 52 42 39 36 32 26 25 25 23 28 35 32 41 35 34 45
83 90 83 84 80 85 94 93 94 93 96 44 29 25 27 26 47 59 51 60 75 91 92 88 70 63 60 52 43 38 36 34 31 25 24 25 24 21 28 28 31 39 25 16
85 100 71 95 92 91 76 89 82 94 92 51 39 40 53 35 26 60 70 57 55 79 81 76 62 54 51 42 37 36 32 29 30 28 27 25 25 24 22 28 32 50 37 29
86 87 81 95 92 86 88 74 70 67 73 78 82 73 65 60 45 30 60 67 51 64 72 66 54 52 47 38 35 33 30 31 29 30 26 25 27 28 31 38 54 52 35 27
89 79 73 80 82 89 82 86 78 76 59 60 53 56 44 36 37 50 27 54 59 50 50 45 46 49 46 40 35 32 30 27 27 31 27 25 25 26 25 34 55 39 66 46
78 82 64 88 87 86 93 77 84 83 75 58 39 34 30 33 29 22 49 46 31 50 53 53 42 42 43 41 38 39 44 27 24 26 26 23 25 27 24 27 38 40 47 43
80 88 70 79 75 91 77 73 85 94 61 72 84 50 40 40 25 16 52 67 65 49 33 48 47 47 35 35 41 52 44 31 29 24 25 26 26 25 19 20 23 26 34 38
35 83 67 83 90 95 87 78 78 78 77 72 73 63 45 45 26 10 30 66 64 59 78 49 45 46 41 30 34 42 49 28 25 24 23 26 26 22 18 18 20 21 26 27
18 96 95 91 91 95 95 92 87 81 66 61 67 73 49 50 39 29 10 31 53 72 94 94 44 49 42 31 51 33 32 34 24 22 28 28 30 28 21 22 28 23 21 23
43 90 93 87 75 87 82 80 82 70 59 57 67 51 58 54 43 40 29 15 28 61 76 70 48 52 32 30 34 27 33 23 23 24 31 33 28 28 29 26 32 35 35 35
14 45 78 94 76 75 75 64 72 70 66 58 52 43 51 52 45 38 43 32 13 45 70 85 80 72 38 28 29 23 20 21 26 32 32 23 20 22 32 33 33 35 35 34
39 46 65 74 82 92 79 66 68 69 61 50 45 46 56 49 40 27 47 39 18 18 54 78 70 49 34 29 24 22 21 25 28 26 24 24 26 28 36 41 42 42 41 37
62 61 57 51 54 73 68 65 66 64 65 49 49 48 55 45 39 36 42 37 18 18 21 27 61 67 40 55 50 40 34 30 36 39 43 48 51 51 48 47 47 46 35 26
59 58 58 42 52 55 66 48 58 66 60 50 51 54 55 46 37 27 28 40 16 22 22 20 14 31 48 50 44 42 37 39 45 51 56 56 53 50 46 43 37 33 41 56
52 51 49 52 66 70 62 57 49 66 58 46 59 65 53 48 36 36 26 30 25 13 22 12 8 12 15 16 25 28 32 35 37 36 34 40 40 39 36 34 36 52 65 73
55 54 42 55 62 76 73 49 54 60 51 56 51 64 54 46 38 39 27 30 36 19 12 9 8 9 10 12 20 23 14 18 24 17 15 28 28 41 45 75 66 79 95 94
57 57 45 68 70 54 52 50 54 47 58 56 65 51 56 40 43 46 41 30 31 21 10 9 8 8 9 9 9 9 9 16 34 39 40 33 52 73 88 87 84 86 70 75
55 58 56 45 72 54 56 59 60 56 57 56 54 48 48 56 60 47 41 44 36 28 12 9 9 11 10 9 8 7 7 8 9 13 20 33 44 45 41 41 30 18 15 13
59 56 50 30 51 52 50 56 67 60 61 56 58 60 72 73 60 46 41 49 45 26 11 12 14 14 12 10 8 7 6 7 8 9 10 10 9 9 10 12 13 17 24 25
74 76 62 50 54 52 42 72 67 63 66 62 62 67 78 72 54 54 56 55 42 17 10 12 14 12 12 8 7 6 7 6 7 8 10 12 14 15 18 22 27 25 19 19
82 75 73 79 68 62 41 43 64 67 65 68 55 66 50 33 48 57 60 54 34 22 17 14 14 16 14 8 7 8 7 9 11 13 15 16 21 26 24 25 21 18 16 14
89 82 79 66 82 65 54 55 56 57 55 62 48 47 43 46 39 58 66 69 75 64 41 15 16 17 11 7 7 7 7 6 8 10 14 15 11 10 11 13 18 13 15 16
69 78 73 56 59 39 36 39 32 43 35 38 26 16 22 23 20 41 76 90 71 78 58 16 17 14 9 7 6 9 7 7 8 13 15 14 10 10 10 11 10 11 13 13
73 72 85 69 52 51 36 31 26 20 21 13 20 19 25 14 36 69 70 73 85 76 30 18 18 12 9 7 7 9 11 6 8 8 9 8 7 7 7 8 8 8 8 12
64 68 76 93 69 78 62 34 28 21 21 17 12 15 47 20 40 56 38 36 32 19 16 16 13 11 8 7 6 10 13 5 6 9 9 9 11 12 12 12 10 10 8 7
83 67 63 62 70 45 32 23 23 40 52 12 10 23 44 41 44 23 22 18 16 16 13 11 12 9 7 6 6 9 8 8 10 12 11 12 13 13 13 13 12 12 13 13
Wind_Speed
9 8 6 13 14 21 23 3 3 12 10 4 3 6 8 11 13 21 22 18 17 17 17 17 14 12 15 16 12 11 12 12 10 8 7 6 4 2 2 3 2 4 2 3
9 9 7 8 17 21 24 21 16 24 21 12 6 7 7 11 10 12 22 19 16 14 15 14 11 7 13 14 13 13 12 13 11 8 8 6 3 3 2 5 3 3 2 1
14 9 8 12 11 13 19 24 23 23 18 8 14 11 10 9 9 5 7 13 17 16 16 15 13 13 12 9 10 9 8 9 7 5 6 6 3 1 2 3 2 2 1 3
14 15 12 8 14 14 14 18 20 26 22 12 11 8 10 9 8 5 7 8 16 20 19 14 12 18 13 8 6 6 5 5 5 6 5 5 4 2 1 3 1 2 2 3
17 18 16 13 14 9 10 15 15 23 18 15 6 5 11 9 6 5 8 13 14 19 16 14 15 19 13 7 6 5 4 6 8 8 9 9 7 2 0 1 2 4 6 6
18 18 13 4 10 9 6 12 13 18 15 9 10 7 8 7 8 8 5 9 9 17 19 16 15 15 14 10 8 9 8 7 7 9 7 6 4 2 3 4 3 3 4 5
14 18 15 9 6 7 4 12 14 20 20 7 9 6 12 14 16 11 5 14 9 9 11 14 17 13 11 11 10 9 9 6 7 7 6 5 7 6 6 7 7 7 5 7
21 15 17 12 7 1 5 7 12 9 6 18 20 11 11 17 19 19 13 8 9 13 13 17 20 17 15 12 11 10 10 8 9 7 6 5 9 7 8 8 9 10 9 9
19 16 16 16 10 4 4 6 7 4 6 10 13 9 16 13 17 23 19 14 3 3 13 19 21 23 19 14 11 12 12 11 9 7 5 6 8 9 10 10 9 8 9 11
22 20 14 16 17 10 7 6 2 4 2 5 7 18 15 14 12 25 20 21 15 5 10 15 24 26 21 17 16 15 15 12 10 8 8 9 9 10 10 12 11 10 10 13
21 25 18 12 15 15 11 12 8 9 7 8 7 10 15 9 13 18 17 20 15 12 9 18 26 21 16 16 18 17 15 12 15 12 13 12 13 12 10 10 11 13 14 15
15 19 20 16 18 16 20 17 15 12 7 8 8 10 8 11 13 12 12 18 10 9 10 12 16 16 12 16 16 16 16 15 16 16 14 12 13 13 10 10 13 15 18 19
18 15 21 15 15 19 26 22 18 14 12 5 4 8 10 14 13 13 12 9 7 8 5 9 11 20 17 13 13 16 16 15 16 15 14 14 14 13 13 15 15 17 19 19
20 10 13 17 11 15 26 24 23 20 16 7 7 8 8 14 20 21 13 8 4 5 4 3 2 8 12 16 14 14 15 14 15 15 16 16 17 17 18 18 19 18 18 20
15 15 13 10 16 14 20 26 26 23 18 15 9 8 11 11 18 11 11 8 2 4 3 2 3 2 3 8 14 17 18 19 19 21 21 20 20 21 21 22 23 22 24 25
25 23 18 20 18 19 20 29 26 23 20 13 16 10 9 9 9 8 8 9 6 7 5 4 4 4 3 4 4 6 14 19 21 21 21 23 24 25 24 23 26 25 25 25
25 25 21 19 14 17 27 32 27 24 17 13 14 16 13 13 9 9 10 11 8 9 10 8 4 3 4 8 12 12 11 11 12 14 15 15 18 19 21 22 24 23 23 24
26 34 29 24 18 17 26 31 23 22 21 17 17 15 15 12 9 17 11 15 13 10 11 7 6 7 11 12 12 12 13 13 12 11 13 15 15 17 19 19 20 20 21 20
21 28 33 27 27 22 19 25 23 23 22 20 22 19 14 13 13 14 16 14 14 12 12 7 7 8 12 14 13 13 13 11 10 10 11 11 12 12 12 11 12 13 14 15
23 23 21 22 23 21 18 21 26 25 21 12 25 18 14 12 9 10 6 9 14 14 14 11 7 8 10 11 13 13 10 7 7 6 5 5 5 6 7 8 8 10 14 16
26 28 21 16 21 20 12 12 29 29 24 28 23 26 17 11 12 12 10 11 10 10 15 11 8 6 7 8 9 6 4 3 2 2 1 3 4 4 5 6 7 8 10 12
30 30 26 22 21 16 9 6 15 19 24 24 21 19 13 11 15 17 21 19 17 11 13 11 8 7 5 4 4 4 3 1 3 2 2 4 5 6 6 7 7 11 11 12
35 34 29 27 20 20 22 18 20 22 22 22 21 23 15 13 13 18 26 31 27 20 17 11 11 8 6 4 5 4 2 3 2 1 1 3 4 5 5 5 7 8 9 11
33 36 29 30 29 23 23 24 22 21 20 10 11 10 12 12 7 9 13 15 14 20 17 12 12 10 6 7 7 6 4 5 3 2 2 3 4 6 6 6 8 9 10 9
32 31 27 23 23 20 20 22 24 20 14 10 9 13 14 14 13 11 11 13 18 14 11 13 12 10 9 12 11 8 6 4 3 1 1 3 4 5 6 6 7 9 9 10
29 30 27 28 25 23 24 21 16 14 13 11 13 17 17 18 18 16 17 17 12 8 10 10 11 12 13 14 11 8 6 5 4 1 1 3 4 6 6 7 8 9 10 11
Wind_Direction
169 143 99 72 69 59 46 74 62 98 28 166 149 87 78 100 100 104 108 106 102 100 114 116 123 140 152 155 153 157 163 153 143 137 137 106 74 76 69 80 92 78 125 145
193 144 99 57 34 46 41 30 29 52 37 146 134 91 70 58 72 91 109 103 107 124 132 135 154 166 162 164 171 168 167 148 146 147 128 128 145 127 72 43 62 69 29 149
157 167 166 102 76 65 49 35 34 39 32 135 131 110 85 77 71 78 113 118 117 126 140 162 164 179 170 173 161 157 138 133 138 144 139 153 214 149 112 136 86 38 348 223
182 174 143 139 108 86 79 58 26 41 41 59 117 85 115 108 98 104 136 167 139 146 168 182 182 197 180 172 176 139 149 152 160 167 167 180 207 172 37 44 216 304 257 233
196 193 164 136 111 99 84 66 30 37 29 24 91 131 114 102 93 154 169 173 177 162 169 173 171 197 202 193 185 186 182 172 174 177 180 197 209 179 38 237 273 301 263 246
200 194 184 153 150 120 104 74 33 23 356 57 62 89 88 89 79 67 200 201 198 183 182 192 184 199 210 197 201 199 203 194 192 187 192 212 232 223 264 259 258 287 303 290
190 204 185 170 126 103 101 64 39 23 102 64 26 69 77 53 41 39 151 189 200 200 211 208 203 202 224 217 214 224 218 213 233 225 195 227 241 249 263 250 255 261 282 298
196 206 202 189 144 96 81 51 77 74 112 29 44 51 52 28 36 23 26 114 165 203 230 213 224 210 224 220 226 227 227 226 233 240 260 271 280 288 281 274 265 273 282 298
188 189 194 177 175 205 113 257 131 135 194 353 4 29 356 353 27 30 32 44 44 277 250 220 220 225 233 224 237 238 236 223 231 252 274 288 281 288 281 278 279 287 287 290
177 186 196 192 193 195 181 212 179 266 273 9 17 32 41 51 24 17 25 26 28 22 192 212 206 219 216 222 237 232 230 233 239 245 258 264 262 265 271 276 281 280 277 277
193 199 206 208 214 191 208 187 226 246 288 5 2 14 355 4 14 19 23 20 12 30 193 198 202 184 200 216 215 228 231 243 251 238 245 257 264 256 253 260 271 274 273 273
197 209 197 214 215 227 230 216 219 258 298 332 327 346 357 352 2 13 2 353 20 28 77 147 177 177 197 218 226 231 234 232 246 246 246 246 256 262 258 252 257 265 273 277
181 207 208 202 226 228 236 232 240 243 271 274 309 325 320 340 6 7 0 356 20 16 82 117 141 184 192 207 227 229 234 233 237 242 243 249 256 258 260 262 264 268 273 273
212 225 244 229 253 254 235 233 233 247 252 248 281 301 309 319 327 343 346 333 10 351 31 29 136 177 196 209 221 234 245 250 251 254 255 256 261 264 267 272 271 271 274 274
240 242 243 263 241 249 233 223 224 244 252 258 262 269 306 331 325 346 333 349 331 318 5 314 276 261 208 216 231 239 244 244 249 257 262 261 263 266 269 275 280 278 273 273
243 249 248 257 235 217 211 219 219 232 252 253 261 267 287 311 330 333 344 337 309 317 303 236 233 265 305 306 281 247 242 242 249 259 263 261 270 270 276 279 275 275 276 278
243 252 249 214 218 233 200 212 222 229 232 238 240 259 277 303 315 327 316 302 309 301 312 293 261 249 282 296 296 287 264 249 251 255 260 261 261 266 266 277 290 296 300 297
247 245 243 226 217 234 223 206 222 230 233 246 258 264 283 298 305 314 302 285 287 296 296 290 296 314 305 300 297 290 293 289 273 265 264 266 265 268 275 279 285 290 294 296
242 243 238 234 225 236 239 228 234 232 236 242 260 247 259 268 297 293 304 307 290 286 281 271 268 287 303 309 312 311 308 301 293 285 284 282 282 283 284 288 291 295 296 297
226 224 227 237 233 245 238 220 216 228 234 244 261 238 262 264 284 282 276 282 278 274 258 251 271 299 311 312 312 310 310 301 295 293 298 304 301 298 295 295 296 301 307 311
220 227 229 242 239 244 248 240 225 228 249 242 270 215 242 272 229 227 214 229 264 262 250 253 262 285 296 292 299 303 309 327 342 36 353 312 310 317 315 305 315 333 326 320
226 228 233 250 210 202 202 239 207 227 249 233 253 254 265 270 264 244 228 220 231 239 260 256 265 276 274 282 278 274 301 51 96 58 31 26 3 356 348 346 332 324 331 328
229 233 239 240 252 250 246 260 240 239 245 248 258 259 267 267 256 258 239 257 219 239 252 253 261 240 228 249 227 246 258 171 171 64 129 336 339 334 334 336 332 336 336 340
223 229 242 241 242 253 261 262 258 265 277 264 243 247 247 243 251 206 196 205 229 225 228 234 240 224 199 212 216 212 203 188 193 231 311 350 355 354 355 350 337 352 353 335
224 234 239 236 238 246 243 252 258 265 265 254 249 227 213 204 187 199 199 200 215 222 233 229 205 209 195 205 205 193 196 174 168 202 353 13 17 17 13 4 354 350 341 338
233 237 244 255 260 250 241 242 241 249 255 260 247 209 204 201 182 185 194 203 216 226 234 218 191 199 203 201 197 182 171 158 153 129 26 10 16 7 2 5 5 359 357 355